Hlavní strana
METAR-TAF:

METAR-TAF

Letiště :

Olney-Noble Airport

Olney-Noble, Illinois, Spojené státy americké

zeměpisná šířka: 38-43-19N, zeměpisná délka: 088-10-35W, výška: 147 m

Aktuální stav počasí

Zpráva byla vytvořena před 22 minutami, v 23:55 UTC
Bezvětří
Teplota 2°C
Vlhkost vzduchu 75%
Tlak 1026 hPa
Viditelnost: 16.1 km
Jasno

METAR: KOLY 072355Z AUTO 00000KT 10SM CLR 02/M02 A3029 RMK AO2 T00181020 10080 20018

Čas: 18:17 (00:17 UTC)


TAF: chybějící

Stav a předpovědi počasí z více než 4 000 letišť (zprávy METAR a TAF).

Červené a žluté tečky na mapě představují dostupné meteorologické stanice.

Když kurzor umístíte na tečku, zobrazí se název stanice.

Pak kliknutím zobrazíte stav a předpověď počasí.

Chcete-li změnit mapu, kliknutím na zelené tlačítko se znaménkem +mapu přiblížíte, kliknutím na zelené tlačítko se znaménkem – mapu oddálíte a kliknutím na zelené šipky přejdete na sousední mapy.


METAR-TAF: